{"data":{"norad_id":65772,"epoch":"2026-05-25T03:22:23.246112Z","epoch_age_seconds":56705,"freshness":"FRESH","line1":"1 65772U 25217L   26145.14054683  .00001242  00000+0  19186-3 0  9999","line2":"2 65772  51.9004  52.5323 0001023  85.7010 274.4069 14.79932623 36372","mean_motion":14.79932623,"eccentricity":0.0001023,"inclination_deg":51.9004,"raan_deg":52.5323,"arg_perigee_deg":85.701,"mean_anomaly_deg":274.4069,"bstar":0.00019186,"rev_number":3637,"period_min":97.301726958417,"perigee_km":628.81993423911,"apogee_km":630.25370430254,"semimajor_km":7007.6738192708,"source":"CELESTRAK","updated_at":"2026-05-25T13:38:05.661441Z"}}